Time,TemperatureF,DewpointF,PressureIn,WindDirection,WindDirectionDegrees,WindSpeedMPH,WindSpeedGustMPH,Humidity,HourlyPrecipIn,Conditions,Clouds,dailyrainin,SoftwareType,DateUTC
2013-04-24 00:01:00,41.1,41.1,30.13,NE,42,5.2,7.9,100,0.01,n/a,n/a,-99.99,Henriksen +1-Wire,2013-04-24 04:01:00,
2013-04-24 00:02:00,41.1,41.1,30.13,NE,40,4.6,7.9,100,0.01,n/a,n/a,-99.99,Henriksen +1-Wire,2013-04-24 04:02:00,
2013-04-24 00:07:00,41.1,41.1,30.12,NE,34,4.6,7.9,100,0.01,n/a,n/a,-99.99,Henriksen +1-Wire,2013-04-24 04:07:00,
2013-04-24 00:08:00,41.1,41.1,30.12,NNE,33,3.6,7.9,100,0.01,n/a,n/a,-99.99,Henriksen +1-Wire,2013-04-24 04:08:00,
2013-04-24 00:09:00,41.1,41.1,30.12,NNE,31,3.2,7.8,100,0.01,n/a,n/a,-99.99,Henriksen +1-Wire,2013-04-24 04:09:00,
2013-04-24 00:14:00,41.1,41.1,30.12,NNE,33,5.1,8.0,100,0.01,n/a,n/a,-99.99,Henriksen +1-Wire,2013-04-24 04:14:00,
2013-04-24 00:19:00,41.1,41.1,30.11,NE,37,4.4,8.0,100,0.01,n/a,n/a,-99.99,Henriksen +1-Wire,2013-04-24 04:19:00,
2013-04-24 00:24:00,41.1,41.1,30.11,NE,37,4.0,10.1,100,0.01,n/a,n/a,-99.99,Henriksen +1-Wire,2013-04-24 04:24:00,
2013-04-24 00:29:00,41.2,41.2,30.10,NE,35,4.9,10.1,100,0.01,n/a,n/a,-99.99,Henriksen +1-Wire,2013-04-24 04:29:00,
2013-04-24 00:35:00,41.2,41.2,30.10,NE,43,4.2,8.6,100,0.01,n/a,n/a,-99.99,Henriksen +1-Wire,2013-04-24 04:35:00,
2013-04-24 00:40:00,41.2,41.2,30.09,NE,45,5.2,7.9,100,0.00,n/a,n/a,-99.99,Henriksen +1-Wire,2013-04-24 04:40:00,
2013-04-24 00:46:00,41.2,41.2,30.09,NE,43,4.0,7.9,100,0.00,n/a,n/a,-99.99,Henriksen +1-Wire,2013-04-24 04:46:00,
2013-04-24 00:51:00,41.3,41.3,30.09,NE,49,4.5,8.1,100,0.00,n/a,n/a,-99.99,Henriksen +1-Wire,2013-04-24 04:51:00,
2013-04-24 00:56:00,41.3,41.3,30.08,NE,54,4.0,8.1,100,0.00,n/a,n/a,-99.99,Henriksen +1-Wire,2013-04-24 04:56:00,
2013-04-24 01:01:00,41.3,41.3,30.08,ENE,67,4.1,7.3,100,0.00,n/a,n/a,-99.99,Henriksen +1-Wire,2013-04-24 05:01:00,
2013-04-24 01:06:00,41.4,41.4,30.07,ENE,64,5.0,7.9,100,0.00,n/a,n/a,-99.99,Henriksen +1-Wire,2013-04-24 05:06:00,
2013-04-24 01:12:00,41.4,41.4,30.06,ENE,66,6.5,8.7,100,0.00,n/a,n/a,-99.99,Henriksen +1-Wire,2013-04-24 05:12:00,
2013-04-24 01:17:00,41.4,41.4,30.05,NE,56,5.2,9.8,100,0.00,n/a,n/a,-99.99,Henriksen +1-Wire,2013-04-24 05:17:00,
2013-04-24 01:22:00,41.5,41.5,30.05,NE,54,5.1,9.8,100,0.00,n/a,n/a,-99.99,Henriksen +1-Wire,2013-04-24 05:22:00,
2013-04-24 01:28:00,41.6,41.6,30.04,ENE,60,6.4,11.8,100,0.00,n/a,n/a,-99.99,Henriksen +1-Wire,2013-04-24 05:28:00,
2013-04-24 01:34:00,41.7,41.7,30.04,NE,54,6.6,11.8,100,0.00,n/a,n/a,-99.99,Henriksen +1-Wire,2013-04-24 05:34:00,
2013-04-24 01:39:00,41.8,41.8,30.03,NE,50,7.3,10.2,100,0.00,n/a,n/a,-99.99,Henriksen +1-Wire,2013-04-24 05:39:00,
2013-04-24 01:45:00,41.8,41.8,30.02,NE,51,5.3,10.2,100,0.00,n/a,n/a,-99.99,Henriksen +1-Wire,2013-04-24 05:45:00,
2013-04-24 01:50:00,41.9,41.9,30.02,NE,54,6.4,9.8,100,0.00,n/a,n/a,-99.99,Henriksen +1-Wire,2013-04-24 05:50:00,
2013-04-24 01:55:00,41.9,41.9,30.02,ENE,57,6.4,10.3,100,0.00,n/a,n/a,-99.99,Henriksen +1-Wire,2013-04-24 05:55:00,
2013-04-24 02:00:00,41.9,41.9,30.01,NE,48,5.9,10.3,100,0.00,n/a,n/a,-99.99,Henriksen +1-Wire,2013-04-24 06:00:00,
2013-04-24 04:03:00,42.8,42.8,29.95,NE,36,5.6,11.1,100,0.00,n/a,n/a,-99.99,Henriksen +1-Wire,2013-04-24 08:03:00,
2013-04-24 04:08:00,42.8,42.8,29.95,NE,39,5.8,9.4,100,0.00,n/a,n/a,-99.99,Henriksen +1-Wire,2013-04-24 08:08:00,
2013-04-24 04:14:00,42.8,42.8,29.95,NE,37,7.3,12.6,100,0.00,n/a,n/a,-99.99,Henriksen +1-Wire,2013-04-24 08:14:00,
2013-04-24 04:19:00,42.8,42.8,29.95,NNE,31,5.8,12.6,100,0.00,n/a,n/a,-99.99,Henriksen +1-Wire,2013-04-24 08:19:00,
2013-04-24 04:25:00,42.8,42.8,29.95,NNE,32,4.8,10.2,100,0.00,n/a,n/a,-99.99,Henriksen +1-Wire,2013-04-24 08:25:00,
2013-04-24 04:30:00,42.8,42.8,29.94,NE,44,6.1,10.2,100,0.00,n/a,n/a,-99.99,Henriksen +1-Wire,2013-04-24 08:30:00,
2013-04-24 04:35:00,42.7,42.7,29.94,NE,35,5.9,10.2,100,0.00,n/a,n/a,-99.99,Henriksen +1-Wire,2013-04-24 08:35:00,
2013-04-24 04:40:00,42.7,42.7,29.94,NE,47,3.7,8.7,100,0.00,n/a,n/a,-99.99,Henriksen +1-Wire,2013-04-24 08:40:00,
2013-04-24 04:45:00,42.7,42.7,29.94,NNE,32,6.6,10.2,100,0.00,n/a,n/a,-99.99,Henriksen +1-Wire,2013-04-24 08:45:00,
2013-04-24 04:50:00,42.6,42.6,29.94,NE,40,6.7,10.2,100,0.00,n/a,n/a,-99.99,Henriksen +1-Wire,2013-04-24 08:50:00,
2013-04-24 04:55:00,42.6,42.6,29.94,NNE,29,4.4,10.2,100,0.00,n/a,n/a,-99.99,Henriksen +1-Wire,2013-04-24 08:55:00,
2013-04-24 05:01:00,42.6,42.6,29.94,NE,36,4.5,9.5,100,0.00,n/a,n/a,-99.99,Henriksen +1-Wire,2013-04-24 09:01:00,
2013-04-24 05:06:00,42.6,42.6,29.94,NNE,25,4.6,8.1,100,0.00,n/a,n/a,-99.99,Henriksen +1-Wire,2013-04-24 09:06:00,
2013-04-24 05:12:00,42.6,42.6,29.94,NNE,27,4.4,10.3,100,0.00,n/a,n/a,-99.99,Henriksen +1-Wire,2013-04-24 09:12:00,
2013-04-24 05:17:00,42.6,42.6,29.94,NNE,29,6.8,11.1,100,0.00,n/a,n/a,-99.99,Henriksen +1-Wire,2013-04-24 09:17:00,
2013-04-24 05:22:00,42.6,42.6,29.93,NE,38,5.5,11.1,100,0.00,n/a,n/a,-99.99,Henriksen +1-Wire,2013-04-24 09:22:00,
2013-04-24 05:27:00,41.5,41.5,29.93,NNE,29,4.6,10.2,100,0.00,n/a,n/a,-99.99,Henriksen +1-Wire,2013-04-24 09:27:00,
2013-04-24 05:32:00,41.6,41.6,29.93,NNE,15,4.2,7.4,100,0.00,n/a,n/a,-99.99,Henriksen +1-Wire,2013-04-24 09:32:00,
2013-04-24 05:37:00,41.6,41.6,29.93,NNE,22,4.2,8.7,100,0.00,n/a,n/a,-99.99,Henriksen +1-Wire,2013-04-24 09:37:00,
2013-04-24 05:43:00,40.7,40.7,29.93,NNE,24,4.9,8.6,100,0.00,n/a,n/a,-99.99,Henriksen +1-Wire,2013-04-24 09:43:00,
2013-04-24 05:48:00,40.7,40.7,29.93,NNE,29,4.9,8.8,100,0.00,n/a,n/a,-99.99,Henriksen +1-Wire,2013-04-24 09:48:00,
2013-04-24 05:53:00,40.7,40.7,29.93,NNE,28,4.1,8.8,100,0.00,n/a,n/a,-99.99,Henriksen +1-Wire,2013-04-24 09:53:00,
2013-04-24 05:58:00,41.3,41.3,29.93,NNE,16,4.6,7.9,100,0.00,n/a,n/a,-99.99,Henriksen +1-Wire,2013-04-24 09:58:00,
2013-04-24 06:03:00,41.7,41.7,29.93,NNE,30,4.7,7.8,100,0.00,n/a,n/a,-99.99,Henriksen +1-Wire,2013-04-24 10:03:00,
2013-04-24 06:09:00,42.0,42.0,29.93,NNE,31,5.6,10.2,100,0.00,n/a,n/a,-99.99,Henriksen +1-Wire,2013-04-24 10:09:00,
2013-04-24 06:15:00,42.3,42.3,29.93,NNE,20,4.9,9.5,100,0.00,n/a,n/a,-99.99,Henriksen +1-Wire,2013-04-24 10:15:00,
2013-04-24 06:21:00,42.4,42.4,29.93,NNE,22,4.6,8.7,100,0.00,n/a,n/a,-99.99,Henriksen +1-Wire,2013-04-24 10:21:00,
2013-04-24 06:27:00,42.5,42.5,29.93,NNE,27,5.1,8.7,100,0.00,n/a,n/a,-99.99,Henriksen +1-Wire,2013-04-24 10:27:00,
2013-04-24 06:32:00,42.5,42.5,29.93,NNE,32,5.6,8.7,100,0.00,n/a,n/a,-99.99,Henriksen +1-Wire,2013-04-24 10:32:00,
2013-04-24 06:37:00,42.6,42.6,29.92,NNE,31,5.5,8.6,100,0.00,n/a,n/a,-99.99,Henriksen +1-Wire,2013-04-24 10:37:00,
2013-04-24 06:42:00,42.7,42.7,29.92,NNE,28,4.8,9.4,100,0.00,n/a,n/a,-99.99,Henriksen +1-Wire,2013-04-24 10:42:00,
2013-04-24 06:47:00,42.7,42.7,29.92,NNE,28,5.0,9.4,100,0.00,n/a,n/a,-99.99,Henriksen +1-Wire,2013-04-24 10:47:00,
2013-04-24 06:52:00,42.8,42.8,29.92,NNE,29,5.5,7.9,100,0.00,n/a,n/a,-99.99,Henriksen +1-Wire,2013-04-24 10:52:00,
2013-04-24 06:57:00,42.9,42.9,29.92,NNE,22,4.9,7.9,100,0.00,n/a,n/a,-99.99,Henriksen +1-Wire,2013-04-24 10:57:00,
2013-04-24 07:02:00,43.0,43.0,29.92,NNE,13,6.2,8.9,100,0.00,n/a,n/a,-99.99,Henriksen +1-Wire,2013-04-24 11:02:00,
2013-04-24 07:07:00,43.0,43.0,29.92,NNE,13,4.5,8.9,100,0.00,n/a,n/a,-99.99,Henriksen +1-Wire,2013-04-24 11:07:00,
2013-04-24 07:12:00,43.1,43.1,29.93,NNE,23,4.5,7.1,100,0.00,n/a,n/a,-99.99,Henriksen +1-Wire,2013-04-24 11:12:00,
2013-04-24 07:17:00,43.1,43.1,29.93,NNE,20,5.0,7.9,100,0.00,n/a,n/a,-99.99,Henriksen +1-Wire,2013-04-24 11:17:00,
2013-04-24 07:23:00,43.2,43.2,29.93,North,11,4.4,8.2,100,0.00,n/a,n/a,-99.99,Henriksen +1-Wire,2013-04-24 11:23:00,
2013-04-24 07:29:00,43.2,43.2,29.93,NNE,12,3.7,8.2,100,0.00,n/a,n/a,-99.99,Henriksen +1-Wire,2013-04-24 11:29:00,
2013-04-24 07:34:00,43.3,43.3,29.93,NNE,16,3.9,7.1,100,0.00,n/a,n/a,-99.99,Henriksen +1-Wire,2013-04-24 11:34:00,
2013-04-24 07:39:00,43.4,43.4,29.93,NNE,13,3.3,7.1,100,0.00,n/a,n/a,-99.99,Henriksen +1-Wire,2013-04-24 11:39:00,
2013-04-24 07:45:00,43.4,43.4,29.93,North,6,3.8,9.4,100,0.00,n/a,n/a,-99.99,Henriksen +1-Wire,2013-04-24 11:45:00,
2013-04-24 07:50:00,43.5,43.5,29.92,North,349,2.7,9.4,100,0.00,n/a,n/a,-99.99,Henriksen +1-Wire,2013-04-24 11:50:00,
2013-04-24 07:55:00,43.5,43.5,29.92,North,9,3.4,7.1,100,0.00,n/a,n/a,-99.99,Henriksen +1-Wire,2013-04-24 11:55:00,
2013-04-24 08:00:00,43.6,43.6,29.92,NNE,20,4.7,7.9,100,0.00,n/a,n/a,-99.99,Henriksen +1-Wire,2013-04-24 12:00:00,
2013-04-24 08:05:00,43.6,43.6,29.92,NNE,19,3.9,7.9,100,0.01,n/a,n/a,-99.99,Henriksen +1-Wire,2013-04-24 12:05:00,
2013-04-24 08:10:00,43.7,43.7,29.92,NNE,30,3.9,7.3,100,0.01,n/a,n/a,-99.99,Henriksen +1-Wire,2013-04-24 12:10:00,
2013-04-24 08:15:00,43.8,43.8,29.92,NNE,24,3.8,7.1,100,0.01,n/a,n/a,-99.99,Henriksen +1-Wire,2013-04-24 12:15:00,
2013-04-24 08:20:00,43.9,43.9,29.92,North,9,4.5,7.9,100,0.01,n/a,n/a,-99.99,Henriksen +1-Wire,2013-04-24 12:20:00,
2013-04-24 08:25:00,44.0,44.0,29.92,NNE,13,4.3,7.9,100,0.01,n/a,n/a,-99.99,Henriksen +1-Wire,2013-04-24 12:25:00,
2013-04-24 08:30:00,44.1,44.1,29.91,North,4,5.0,7.1,100,0.01,n/a,n/a,-99.99,Henriksen +1-Wire,2013-04-24 12:30:00,
2013-04-24 08:35:00,44.2,44.2,29.91,NNE,14,4.6,7.5,100,0.01,n/a,n/a,-99.99,Henriksen +1-Wire,2013-04-24 12:35:00,
2013-04-24 08:41:00,44.5,44.5,29.91,North,6,4.8,7.1,100,0.01,n/a,n/a,-99.99,Henriksen +1-Wire,2013-04-24 12:41:00,
2013-04-24 08:46:00,44.6,44.6,29.91,NNE,16,5.5,8.7,100,0.01,n/a,n/a,-99.99,Henriksen +1-Wire,2013-04-24 12:46:00,
2013-04-24 08:51:00,44.9,44.9,29.91,NNE,24,4.3,8.7,100,0.01,n/a,n/a,-99.99,Henriksen +1-Wire,2013-04-24 12:51:00,
2013-04-24 08:57:00,45.1,45.1,29.91,NNE,27,5.1,10.2,99,0.01,n/a,n/a,-99.99,Henriksen +1-Wire,2013-04-24 12:57:00,
2013-04-24 09:03:00,45.4,45.3,29.91,NNE,27,4.5,9.2,99,0.01,n/a,n/a,-99.99,Henriksen +1-Wire,2013-04-24 13:03:00,
2013-04-24 09:08:00,45.6,45.4,29.91,NNE,24,5.8,10.5,99,0.00,n/a,n/a,-99.99,Henriksen +1-Wire,2013-04-24 13:08:00,
2013-04-24 09:13:00,45.9,45.6,29.91,NNE,24,4.7,10.5,98,0.00,n/a,n/a,-99.99,Henriksen +1-Wire,2013-04-24 13:13:00,
2013-04-24 09:18:00,46.2,45.8,29.91,NNE,24,4.2,10.0,98,0.00,n/a,n/a,-99.99,Henriksen +1-Wire,2013-04-24 13:18:00,
2013-04-24 09:23:00,46.5,46.1,29.91,NE,39,4.9,11.0,98,0.00,n/a,n/a,-99.99,Henriksen +1-Wire,2013-04-24 13:23:00,
2013-04-24 09:28:00,46.6,46.1,29.91,NNE,30,4.5,11.0,98,0.00,n/a,n/a,-99.99,Henriksen +1-Wire,2013-04-24 13:28:00,
2013-04-24 09:33:00,46.8,46.1,29.91,NNE,23,6.6,11.0,97,0.00,n/a,n/a,-99.99,Henriksen +1-Wire,2013-04-24 13:33:00,
2013-04-24 09:38:00,46.9,46.1,29.91,NNE,18,4.1,10.3,97,0.00,n/a,n/a,-99.99,Henriksen +1-Wire,2013-04-24 13:38:00,
2013-04-24 09:43:00,47.1,46.2,29.90,NNE,32,4.8,8.0,96,0.00,n/a,n/a,-99.99,Henriksen +1-Wire,2013-04-24 13:43:00,
2013-04-24 09:48:00,47.2,46.3,29.90,NNE,29,5.4,9.4,96,0.00,n/a,n/a,-99.99,Henriksen +1-Wire,2013-04-24 13:48:00,
2013-04-24 09:54:00,47.3,46.4,29.90,NNE,27,5.6,9.7,96,0.00,n/a,n/a,-99.99,Henriksen +1-Wire,2013-04-24 13:54:00,
2013-04-24 09:59:00,47.5,46.5,29.90,NNE,33,6.7,10.2,96,0.00,n/a,n/a,-99.99,Henriksen +1-Wire,2013-04-24 13:59:00,
2013-04-24 10:05:00,47.8,46.7,29.90,NNE,28,5.5,13.4,96,0.00,n/a,n/a,-99.99,Henriksen +1-Wire,2013-04-24 14:05:00,
2013-04-24 10:10:00,48.0,46.9,29.89,NE,46,5.8,10.5,95,0.00,n/a,n/a,-99.99,Henriksen +1-Wire,2013-04-24 14:10:00,
2013-04-24 10:16:00,48.2,46.9,29.89,NE,35,4.5,10.9,95,0.00,n/a,n/a,-99.99,Henriksen +1-Wire,2013-04-24 14:16:00,
2013-04-24 10:21:00,48.6,47.2,29.89,NE,40,6.1,10.9,94,0.00,n/a,n/a,-99.99,Henriksen +1-Wire,2013-04-24 14:21:00,
2013-04-24 10:26:00,48.9,47.3,29.89,NE,37,5.8,9.9,94,0.00,n/a,n/a,-99.99,Henriksen +1-Wire,2013-04-24 14:26:00,
2013-04-24 10:31:00,49.2,47.6,29.89,NE,36,4.9,9.3,94,0.00,n/a,n/a,-99.99,Henriksen +1-Wire,2013-04-24 14:31:00,
2013-04-24 10:36:00,50.1,48.4,29.89,NNE,33,4.0,8.7,93,0.00,n/a,n/a,-99.99,Henriksen +1-Wire,2013-04-24 14:36:00,
2013-04-24 10:41:00,50.8,48.9,29.88,North,8,5.3,7.9,92,0.00,n/a,n/a,-99.99,Henriksen +1-Wire,2013-04-24 14:41:00,
2013-04-24 10:46:00,51.5,49.1,29.88,North,11,4.4,7.9,91,0.00,n/a,n/a,-99.99,Henriksen +1-Wire,2013-04-24 14:46:00,
2013-04-24 10:51:00,51.9,49.3,29.88,NNE,24,4.3,7.1,90,0.00,n/a,n/a,-99.99,Henriksen +1-Wire,2013-04-24 14:51:00,
2013-04-24 10:56:00,53.0,50.2,29.87,NNE,28,3.9,7.0,90,0.00,n/a,n/a,-99.99,Henriksen +1-Wire,2013-04-24 14:56:00,
2013-04-24 11:01:00,53.6,50.6,29.87,NE,37,5.7,9.4,89,0.00,n/a,n/a,-99.99,Henriksen +1-Wire,2013-04-24 15:01:00,
2013-04-24 11:09:00,54.3,50.9,29.87,NE,36,5.0,8.6,88,0.00,n/a,n/a,-99.99,Henriksen +1-Wire,2013-04-24 15:09:00,
2013-04-24 11:15:00,55.2,51.7,29.86,NE,41,3.3,8.1,87,0.00,n/a,n/a,-99.99,Henriksen +1-Wire,2013-04-24 15:15:00,
2013-04-24 11:20:00,55.8,52.2,29.86,NNE,20,3.2,7.5,87,0.00,n/a,n/a,-99.99,Henriksen +1-Wire,2013-04-24 15:20:00,
2013-04-24 11:25:00,56.3,52.2,29.86,NE,41,2.8,7.5,86,0.00,n/a,n/a,-99.99,Henriksen +1-Wire,2013-04-24 15:25:00,
2013-04-24 11:30:00,56.2,51.7,29.86,North,3,2.9,5.3,84,0.00,n/a,n/a,-99.99,Henriksen +1-Wire,2013-04-24 15:30:00,
2013-04-24 11:35:00,56.0,51.3,29.86,North,6,2.9,5.6,83,0.00,n/a,n/a,-99.99,Henriksen +1-Wire,2013-04-24 15:35:00,
2013-04-24 11:40:00,56.1,51.1,29.86,NNW,336,1.1,5.6,83,0.00,n/a,n/a,-99.99,Henriksen +1-Wire,2013-04-24 15:40:00,
2013-04-24 11:45:00,56.1,50.8,29.86,North,8,2.3,5.0,82,0.00,n/a,n/a,-99.99,Henriksen +1-Wire,2013-04-24 15:45:00,
2013-04-24 11:50:00,55.9,50.5,29.86,North,356,3.1,5.0,81,0.00,n/a,n/a,-99.99,Henriksen +1-Wire,2013-04-24 15:50:00,
2013-04-24 11:55:00,55.6,50.1,29.86,NNE,12,3.0,5.0,81,0.00,n/a,n/a,-99.99,Henriksen +1-Wire,2013-04-24 15:55:00,
2013-04-24 12:00:00,55.5,50.2,29.86,NE,40,2.3,5.0,82,0.00,n/a,n/a,-99.99,Henriksen +1-Wire,2013-04-24 16:00:00,
2013-04-24 12:05:00,55.6,50.4,29.86,NNE,19,2.5,5.0,82,0.00,n/a,n/a,-99.99,Henriksen +1-Wire,2013-04-24 16:05:00,
2013-04-24 12:10:00,55.6,50.5,29.86,NW,320,2.8,6.8,82,0.00,n/a,n/a,-99.99,Henriksen +1-Wire,2013-04-24 16:10:00,
2013-04-24 12:15:00,55.5,50.5,29.86,NNE,27,1.9,6.8,83,0.00,n/a,n/a,-99.99,Henriksen +1-Wire,2013-04-24 16:15:00,
2013-04-24 12:20:00,55.4,50.5,29.85,NE,36,3.0,6.3,83,0.00,n/a,n/a,-99.99,Henriksen +1-Wire,2013-04-24 16:20:00,
2013-04-24 12:26:00,55.7,50.9,29.85,NNE,28,2.8,6.3,83,0.00,n/a,n/a,-99.99,Henriksen +1-Wire,2013-04-24 16:26:00,
2013-04-24 12:31:00,56.2,51.4,29.85,North,2,3.9,7.0,83,0.00,n/a,n/a,-99.99,Henriksen +1-Wire,2013-04-24 16:31:00,
2013-04-24 12:36:00,56.3,51.5,29.85,North,8,3.7,7.0,83,0.00,n/a,n/a,-99.99,Henriksen +1-Wire,2013-04-24 16:36:00,
2013-04-24 12:41:00,56.6,51.5,29.85,North,7,3.2,5.6,82,0.00,n/a,n/a,-99.99,Henriksen +1-Wire,2013-04-24 16:41:00,
2013-04-24 12:46:00,56.8,51.5,29.85,NNE,12,3.2,5.1,82,0.00,n/a,n/a,-99.99,Henriksen +1-Wire,2013-04-24 16:46:00,
2013-04-24 12:51:00,57.0,51.6,29.85,North,359,1.5,5.0,81,0.00,n/a,n/a,-99.99,Henriksen +1-Wire,2013-04-24 16:51:00,
2013-04-24 12:56:00,57.4,51.7,29.85,North,6,0.7,3.3,81,0.00,n/a,n/a,-99.99,Henriksen +1-Wire,2013-04-24 16:56:00,
2013-04-24 13:01:00,58.0,52.3,29.85,NNE,25,2.5,3.3,81,0.00,n/a,n/a,-99.99,Henriksen +1-Wire,2013-04-24 17:01:00,
2013-04-24 13:06:00,58.2,52.5,29.84,NNE,24,0.9,3.5,81,0.00,n/a,n/a,-99.99,Henriksen +1-Wire,2013-04-24 17:06:00,
2013-04-24 13:12:00,58.7,52.5,29.84,North,11,1.6,4.8,79,0.00,n/a,n/a,-99.99,Henriksen +1-Wire,2013-04-24 17:12:00,
2013-04-24 13:18:00,59.2,52.7,29.84,NE,45,1.9,4.8,78,0.00,n/a,n/a,-99.99,Henriksen +1-Wire,2013-04-24 17:18:00,
2013-04-24 13:23:00,60.3,53.4,29.83,SE,135,1.6,5.5,77,0.00,n/a,n/a,-99.99,Henriksen +1-Wire,2013-04-24 17:23:00,
2013-04-24 13:28:00,61.2,53.6,29.83,SE,135,0.5,5.5,75,0.00,n/a,n/a,-99.99,Henriksen +1-Wire,2013-04-24 17:28:00,
2013-04-24 13:33:00,61.6,53.4,29.83,South,177,3.9,5.6,74,0.00,n/a,n/a,-99.99,Henriksen +1-Wire,2013-04-24 17:33:00,
2013-04-24 13:39:00,61.8,53.2,29.82,SSW,196,3.0,5.6,73,0.00,n/a,n/a,-99.99,Henriksen +1-Wire,2013-04-24 17:39:00,
2013-04-24 13:44:00,62.2,53.6,29.82,WSW,237,2.4,4.8,73,0.00,n/a,n/a,-99.99,Henriksen +1-Wire,2013-04-24 17:44:00,
2013-04-24 13:49:00,62.6,53.7,29.83,SW,235,0.8,4.8,72,0.00,n/a,n/a,-99.99,Henriksen +1-Wire,2013-04-24 17:49:00,
2013-04-24 13:55:00,62.6,53.2,29.82,SW,214,4.6,7.9,70,0.00,n/a,n/a,-99.99,Henriksen +1-Wire,2013-04-24 17:55:00,
2013-04-24 14:01:00,60.5,51.2,29.82,South,183,5.1,7.9,71,0.00,n/a,n/a,-99.99,Henriksen +1-Wire,2013-04-24 18:01:00,
2013-04-24 14:06:00,58.1,49.9,29.82,SSW,193,5.1,8.7,73,0.00,n/a,n/a,-99.99,Henriksen +1-Wire,2013-04-24 18:06:00,
2013-04-24 14:11:00,57.2,50.1,29.82,South,191,5.4,8.7,77,0.00,n/a,n/a,-99.99,Henriksen +1-Wire,2013-04-24 18:11:00,
2013-04-24 14:16:00,56.2,49.9,29.82,SSW,195,5.5,8.7,79,0.00,n/a,n/a,-99.99,Henriksen +1-Wire,2013-04-24 18:16:00,
2013-04-24 14:21:00,55.9,49.9,29.82,SSW,199,5.0,8.7,79,0.00,n/a,n/a,-99.99,Henriksen +1-Wire,2013-04-24 18:21:00,
2013-04-24 14:26:00,55.6,49.7,29.82,SSW,192,5.0,8.6,80,0.00,n/a,n/a,-99.99,Henriksen +1-Wire,2013-04-24 18:26:00,
2013-04-24 14:32:00,54.9,49.0,29.81,South,186,4.0,9.5,80,0.00,n/a,n/a,-99.99,Henriksen +1-Wire,2013-04-24 18:32:00,
2013-04-24 14:37:00,54.7,48.9,29.81,South,176,4.7,9.5,80,0.00,n/a,n/a,-99.99,Henriksen +1-Wire,2013-04-24 18:37:00,
2013-04-24 14:42:00,54.4,48.7,29.81,South,173,4.0,7.1,80,0.00,n/a,n/a,-99.99,Henriksen +1-Wire,2013-04-24 18:42:00,
2013-04-24 14:47:00,54.5,49.0,29.81,South,180,3.5,7.1,81,0.00,n/a,n/a,-99.99,Henriksen +1-Wire,2013-04-24 18:47:00,
2013-04-24 14:52:00,54.5,49.1,29.80,South,190,6.5,9.5,81,0.00,n/a,n/a,-99.99,Henriksen +1-Wire,2013-04-24 18:52:00,
2013-04-24 14:57:00,53.8,48.5,29.80,SSW,193,5.8,9.5,82,0.00,n/a,n/a,-99.99,Henriksen +1-Wire,2013-04-24 18:57:00,
2013-04-24 15:02:00,53.3,48.3,29.80,South,189,5.3,8.9,83,0.00,n/a,n/a,-99.99,Henriksen +1-Wire,2013-04-24 19:02:00,
2013-04-24 15:07:00,53.2,48.5,29.80,South,191,6.1,8.7,83,0.00,n/a,n/a,-99.99,Henriksen +1-Wire,2013-04-24 19:07:00,
2013-04-24 15:12:00,53.0,48.5,29.80,SSW,197,4.7,8.7,84,0.00,n/a,n/a,-99.99,Henriksen +1-Wire,2013-04-24 19:12:00,
2013-04-24 15:17:00,53.2,48.8,29.80,South,182,2.7,8.6,84,0.00,n/a,n/a,-99.99,Henriksen +1-Wire,2013-04-24 19:17:00,
2013-04-24 15:23:00,53.3,48.9,29.79,SSW,200,4.7,7.2,84,0.00,n/a,n/a,-99.99,Henriksen +1-Wire,2013-04-24 19:23:00,
2013-04-24 15:28:00,53.4,48.8,29.79,SSW,195,5.0,8.0,84,0.00,n/a,n/a,-99.99,Henriksen +1-Wire,2013-04-24 19:28:00,
2013-04-24 15:33:00,53.6,48.7,29.79,SSW,207,4.2,8.0,83,0.00,n/a,n/a,-99.99,Henriksen +1-Wire,2013-04-24 19:33:00,
2013-04-24 15:38:00,53.9,48.8,29.79,SSW,199,4.2,7.9,82,0.00,n/a,n/a,-99.99,Henriksen +1-Wire,2013-04-24 19:38:00,
2013-04-24 15:43:00,54.0,48.9,29.79,South,188,4.4,7.9,82,0.00,n/a,n/a,-99.99,Henriksen +1-Wire,2013-04-24 19:43:00,
2013-04-24 15:49:00,54.1,48.9,29.80,SSW,193,5.3,10.2,82,0.00,n/a,n/a,-99.99,Henriksen +1-Wire,2013-04-24 19:49:00,
2013-04-24 15:55:00,54.3,49.0,29.80,SSW,196,5.0,10.2,82,0.00,n/a,n/a,-99.99,Henriksen +1-Wire,2013-04-24 19:55:00,
2013-04-24 16:00:00,54.1,48.7,29.80,South,176,4.6,9.6,81,0.00,n/a,n/a,-99.99,Henriksen +1-Wire,2013-04-24 20:00:00,
2013-04-24 16:05:00,53.8,48.5,29.81,South,191,5.2,9.6,82,0.00,n/a,n/a,-99.99,Henriksen +1-Wire,2013-04-24 20:05:00,
2013-04-24 16:11:00,53.3,48.4,29.80,South,189,4.9,8.7,83,0.00,n/a,n/a,-99.99,Henriksen +1-Wire,2013-04-24 20:11:00,
2013-04-24 16:16:00,53.1,48.5,29.80,SSW,193,3.3,8.7,84,0.00,n/a,n/a,-99.99,Henriksen +1-Wire,2013-04-24 20:16:00,
2013-04-24 16:21:00,52.8,48.1,29.81,South,184,2.7,6.3,84,0.00,n/a,n/a,-99.99,Henriksen +1-Wire,2013-04-24 20:21:00,
2013-04-24 16:26:00,52.6,48.0,29.81,South,174,1.8,5.0,84,0.00,n/a,n/a,-99.99,Henriksen +1-Wire,2013-04-24 20:26:00,
2013-04-24 16:32:00,52.5,48.1,29.81,South,183,2.6,4.8,84,0.00,n/a,n/a,-99.99,Henriksen +1-Wire,2013-04-24 20:32:00,
2013-04-24 16:38:00,52.5,48.1,29.81,South,183,2.9,4.8,84,0.00,n/a,n/a,-99.99,Henriksen +1-Wire,2013-04-24 20:38:00,
2013-04-24 16:44:00,52.3,48.0,29.81,South,190,3.4,5.7,85,0.00,n/a,n/a,-99.99,Henriksen +1-Wire,2013-04-24 20:44:00,
2013-04-24 16:49:00,52.2,47.9,29.80,South,188,3.3,6.3,85,0.00,n/a,n/a,-99.99,Henriksen +1-Wire,2013-04-24 20:49:00,
2013-04-24 16:55:00,51.8,47.6,29.80,SSW,193,5.2,8.6,85,0.00,n/a,n/a,-99.99,Henriksen +1-Wire,2013-04-24 20:55:00,
2013-04-24 17:00:00,51.4,47.5,29.80,SSW,203,3.7,8.6,86,0.00,n/a,n/a,-99.99,Henriksen +1-Wire,2013-04-24 21:00:00,
2013-04-24 17:05:00,51.0,47.3,29.80,South,180,2.3,6.3,86,0.00,n/a,n/a,-99.99,Henriksen +1-Wire,2013-04-24 21:05:00,
2013-04-24 17:10:00,50.9,47.4,29.80,SW,219,3.1,5.5,87,0.00,n/a,n/a,-99.99,Henriksen +1-Wire,2013-04-24 21:10:00,
2013-04-24 17:15:00,50.8,47.3,29.80,SSW,195,3.8,7.0,87,0.00,n/a,n/a,-99.99,Henriksen +1-Wire,2013-04-24 21:15:00,
2013-04-24 17:20:00,50.4,47.0,29.80,SSW,197,4.5,7.5,87,0.00,n/a,n/a,-99.99,Henriksen +1-Wire,2013-04-24 21:20:00,
2013-04-24 17:26:00,50.0,46.9,29.80,South,189,6.1,8.6,88,0.00,n/a,n/a,-99.99,Henriksen +1-Wire,2013-04-24 21:26:00,
2013-04-24 17:31:00,49.9,47.0,29.80,South,183,6.0,10.3,89,0.00,n/a,n/a,-99.99,Henriksen +1-Wire,2013-04-24 21:31:00,
2013-04-24 17:36:00,49.7,47.0,29.80,South,183,8.3,10.3,90,0.00,n/a,n/a,-99.99,Henriksen +1-Wire,2013-04-24 21:36:00,
2013-04-24 17:41:00,49.3,46.7,29.80,South,187,8.3,11.8,90,0.00,n/a,n/a,-99.99,Henriksen +1-Wire,2013-04-24 21:41:00,
2013-04-24 17:46:00,49.1,46.7,29.80,South,189,8.2,11.8,91,0.00,n/a,n/a,-99.99,Henriksen +1-Wire,2013-04-24 21:46:00,
2013-04-24 17:51:00,48.9,46.7,29.80,South,186,6.8,11.2,92,0.00,n/a,n/a,-99.99,Henriksen +1-Wire,2013-04-24 21:51:00,
2013-04-24 17:56:00,48.9,46.8,29.80,South,186,6.2,11.0,92,0.00,n/a,n/a,-99.99,Henriksen +1-Wire,2013-04-24 21:56:00,
2013-04-24 18:01:00,48.9,46.8,29.80,South,191,7.4,10.3,92,0.00,n/a,n/a,-99.99,Henriksen +1-Wire,2013-04-24 22:01:00,
2013-04-24 18:06:00,48.7,46.7,29.79,South,191,7.6,11.3,92,0.00,n/a,n/a,-99.99,Henriksen +1-Wire,2013-04-24 22:06:00,
2013-04-24 18:11:00,48.5,46.6,29.79,SSW,198,5.7,11.3,92,0.00,n/a,n/a,-99.99,Henriksen +1-Wire,2013-04-24 22:11:00,
2013-04-24 18:16:00,48.4,46.6,29.79,SSW,198,6.1,9.4,93,0.00,n/a,n/a,-99.99,Henriksen +1-Wire,2013-04-24 22:16:00,
2013-04-24 18:21:00,48.2,46.5,29.79,SSW,194,5.8,9.4,93,0.00,n/a,n/a,-99.99,Henriksen +1-Wire,2013-04-24 22:21:00,
2013-04-24 18:26:00,48.1,46.5,29.79,SSW,196,5.0,9.4,93,0.00,n/a,n/a,-99.99,Henriksen +1-Wire,2013-04-24 22:26:00,
2013-04-24 18:32:00,48.1,46.5,29.79,SSW,195,4.0,7.8,94,0.00,n/a,n/a,-99.99,Henriksen +1-Wire,2013-04-24 22:32:00,
2013-04-24 18:37:00,48.1,46.5,29.79,SSW,198,4.4,8.7,94,0.00,n/a,n/a,-99.99,Henriksen +1-Wire,2013-04-24 22:37:00,
2013-04-24 18:42:00,48.0,46.5,29.79,SSW,195,4.9,8.7,94,0.00,n/a,n/a,-99.99,Henriksen +1-Wire,2013-04-24 22:42:00,
2013-04-24 18:47:00,48.0,46.5,29.79,SSW,196,6.4,8.6,94,0.00,n/a,n/a,-99.99,Henriksen +1-Wire,2013-04-24 22:47:00,
2013-04-24 18:52:00,48.0,46.5,29.79,SSW,194,5.6,8.7,94,0.00,n/a,n/a,-99.99,Henriksen +1-Wire,2013-04-24 22:52:00,
2013-04-24 18:58:00,47.9,46.4,29.78,SSW,196,3.7,7.9,94,0.00,n/a,n/a,-99.99,Henriksen +1-Wire,2013-04-24 22:58:00,
2013-04-24 19:03:00,47.8,46.3,29.78,SSW,196,4.7,7.9,94,0.00,n/a,n/a,-99.99,Henriksen +1-Wire,2013-04-24 23:03:00,
2013-04-24 19:08:00,47.8,46.2,29.78,SSW,197,4.5,7.9,94,0.00,n/a,n/a,-99.99,Henriksen +1-Wire,2013-04-24 23:08:00,
2013-04-24 19:13:00,47.7,46.1,29.78,SSW,192,4.3,6.3,94,0.00,n/a,n/a,-99.99,Henriksen +1-Wire,2013-04-24 23:13:00,
2013-04-24 19:18:00,47.7,46.1,29.79,SSW,194,3.0,6.3,94,0.00,n/a,n/a,-99.99,Henriksen +1-Wire,2013-04-24 23:18:00,
2013-04-24 19:23:00,47.7,46.1,29.78,SSW,193,2.9,5.6,94,0.00,n/a,n/a,-99.99,Henriksen +1-Wire,2013-04-24 23:23:00,
2013-04-24 19:28:00,47.6,46.1,29.78,SSW,196,3.4,5.5,94,0.00,n/a,n/a,-99.99,Henriksen +1-Wire,2013-04-24 23:28:00,
2013-04-24 19:33:00,47.6,46.1,29.78,SSW,198,3.7,6.3,94,0.00,n/a,n/a,-99.99,Henriksen +1-Wire,2013-04-24 23:33:00,
2013-04-24 19:38:00,47.5,46.0,29.78,SSW,196,3.7,6.3,94,0.00,n/a,n/a,-99.99,Henriksen +1-Wire,2013-04-24 23:38:00,
2013-04-24 19:43:00,47.5,46.0,29.78,SSW,193,4.1,7.1,94,0.00,n/a,n/a,-99.99,Henriksen +1-Wire,2013-04-24 23:43:00,
2013-04-24 19:48:00,47.5,46.0,29.78,SSW,194,3.0,7.1,94,0.00,n/a,n/a,-99.99,Henriksen +1-Wire,2013-04-24 23:48:00,
2013-04-24 19:53:00,47.5,45.9,29.78,South,184,2.1,6.3,94,0.00,n/a,n/a,-99.99,Henriksen +1-Wire,2013-04-24 23:53:00,
2013-04-24 19:59:00,47.4,45.9,29.78,SSW,193,3.1,4.7,94,0.00,n/a,n/a,-99.99,Henriksen +1-Wire,2013-04-24 23:59:00,
2013-04-24 22:03:00,52.5,47.3,29.78,SW,224,6.2,14.2,82,0.00,n/a,n/a,-99.99,Henriksen +1-Wire,2013-04-25 02:03:00,
2013-04-24 22:08:00,52.6,47.4,29.78,SW,225,6.2,10.9,82,0.00,n/a,n/a,-99.99,Henriksen +1-Wire,2013-04-25 02:08:00,
2013-04-24 22:13:00,52.8,47.5,29.79,SW,228,5.5,11.4,82,0.00,n/a,n/a,-99.99,Henriksen +1-Wire,2013-04-25 02:13:00,
2013-04-24 22:18:00,53.0,47.7,29.79,SW,227,6.7,15.7,81,0.00,n/a,n/a,-99.99,Henriksen +1-Wire,2013-04-25 02:18:00,
2013-04-24 22:23:00,53.2,47.8,29.79,SW,224,5.1,15.7,81,0.00,n/a,n/a,-99.99,Henriksen +1-Wire,2013-04-25 02:23:00,
2013-04-24 22:28:00,53.3,47.7,29.79,SW,223,6.0,12.6,81,0.00,n/a,n/a,-99.99,Henriksen +1-Wire,2013-04-25 02:28:00,
2013-04-24 22:34:00,53.2,47.6,29.79,SW,221,4.5,10.3,81,0.00,n/a,n/a,-99.99,Henriksen +1-Wire,2013-04-25 02:34:00,
2013-04-24 22:39:00,52.9,47.3,29.79,SW,217,3.9,9.4,81,0.00,n/a,n/a,-99.99,Henriksen +1-Wire,2013-04-25 02:39:00,
2013-04-24 22:44:00,52.4,47.1,29.79,SSW,206,4.1,7.4,81,0.00,n/a,n/a,-99.99,Henriksen +1-Wire,2013-04-25 02:44:00,
2013-04-24 22:49:00,51.9,46.8,29.80,SSW,207,2.9,10.2,82,0.00,n/a,n/a,-99.99,Henriksen +1-Wire,2013-04-25 02:49:00,
2013-04-24 22:55:00,51.5,46.9,29.80,SSW,208,3.5,7.1,83,0.00,n/a,n/a,-99.99,Henriksen +1-Wire,2013-04-25 02:55:00,
2013-04-24 23:00:00,51.3,46.9,29.80,SSW,199,4.9,9.4,84,0.00,n/a,n/a,-99.99,Henriksen +1-Wire,2013-04-25 03:00:00,
2013-04-24 23:05:00,50.9,46.7,29.79,SSW,206,5.5,9.4,85,0.00,n/a,n/a,-99.99,Henriksen +1-Wire,2013-04-25 03:05:00,
2013-04-24 23:10:00,50.4,46.5,29.79,SSW,204,5.5,9.5,86,0.00,n/a,n/a,-99.99,Henriksen +1-Wire,2013-04-25 03:10:00,
2013-04-24 23:15:00,49.9,46.2,29.79,SSW,209,6.2,10.3,87,0.00,n/a,n/a,-99.99,Henriksen +1-Wire,2013-04-25 03:15:00,
2013-04-24 23:21:00,49.1,45.9,29.78,SSW,212,5.5,10.3,88,0.00,n/a,n/a,-99.99,Henriksen +1-Wire,2013-04-25 03:21:00,
2013-04-24 23:26:00,48.6,45.8,29.78,SSW,208,6.4,10.3,89,0.00,n/a,n/a,-99.99,Henriksen +1-Wire,2013-04-25 03:26:00,
2013-04-24 23:31:00,48.4,45.9,29.78,SW,218,6.5,11.7,91,0.00,n/a,n/a,-99.99,Henriksen +1-Wire,2013-04-25 03:31:00,
2013-04-24 23:36:00,48.5,46.2,29.78,SW,214,7.0,13.8,91,0.00,n/a,n/a,-99.99,Henriksen +1-Wire,2013-04-25 03:36:00,
2013-04-24 23:41:00,48.7,46.4,29.78,SW,221,7.5,13.8,91,0.00,n/a,n/a,-99.99,Henriksen +1-Wire,2013-04-25 03:41:00,
2013-04-24 23:46:00,48.8,46.5,29.78,SW,219,8.2,15.7,91,0.00,n/a,n/a,-99.99,Henriksen +1-Wire,2013-04-25 03:46:00,
2013-04-24 23:52:00,48.8,46.5,29.78,SW,217,5.9,15.7,91,0.00,n/a,n/a,-99.99,Henriksen +1-Wire,2013-04-25 03:52:00,
2013-04-24 23:57:00,48.7,46.5,29.78,SW,219,5.8,15.0,91,0.00,n/a,n/a,-99.99,Henriksen +1-Wire,2013-04-25 03:57:00,